| time (UTC) | temp F | wind direction | speed knots | gust knots | rain 1hr in | rain 24hr in | rain mn in | humidity % | barometer mb |
| 20260905123545 | 66 | 269 | 2.6 | 18.2 | 0.00 | 0.12 | 0.00 | 67 | 1022.2 |
| 20260905123107 | 66 | 223 | 1.7 | 14.8 | 0.00 | 0.12 | 0.00 | 66 | 1022.2 |
| 20260905122544 | 66 | 230 | 2.6 | 14.8 | 0.00 | 0.12 | 0.00 | 66 | 1022.2 |
| 20260905122043 | 66 | 246 | 1.7 | 14.8 | 0.00 | 0.12 | 0.00 | 66 | 1022.1 |
| 20260905121604 | 66 | 246 | 5.2 | 20.9 | 0.00 | 0.12 | 0.00 | 66 | 1022.1 |
| 20260905121042 | 66 | 245 | 4.3 | 20.9 | 0.00 | 0.12 | 0.00 | 66 | 1022.2 |
| 20260905120545 | 65 | 280 | 6.1 | 17.4 | 0.00 | 0.12 | 0.00 | 67 | 1022.0 |
| 20260905120108 | 65 | 0 | 2.6 | 13.9 | 0.00 | 0.12 | 0.00 | 67 | 1022.1 |
| 20260905115545 | 66 | 244 | 2.6 | 13.0 | 0.00 | 0.12 | 0.00 | 65 | 1022.0 |
| 20260905115049 | 66 | 252 | 0.0 | 17.4 | 0.00 | 0.12 | 0.00 | 67 | 1021.9 |
| 20260905114558 | 66 | 0 | 3.5 | 18.2 | 0.00 | 0.12 | 0.00 | 67 | 1021.9 |
| 20260905114042 | 65 | 279 | 6.1 | 18.2 | 0.00 | 0.12 | 0.00 | 68 | 1022.0 |
| 20260905113546 | 65 | 223 | 5.2 | 15.6 | 0.00 | 0.12 | 0.00 | 67 | 1022.0 |
| 20260905113109 | 65 | 0 | 0.9 | 13.9 | 0.00 | 0.12 | 0.00 | 67 | 1021.9 |
| 20260905112542 | 66 | 246 | 1.7 | 20.9 | 0.00 | 0.12 | 0.00 | 67 | 1021.8 |
| 20260905112045 | 66 | 0 | 5.2 | 20.9 | 0.00 | 0.12 | 0.00 | 66 | 1021.6 |
| 20260905111607 | 66 | 231 | 6.1 | 20.0 | 0.00 | 0.12 | 0.00 | 69 | 1021.7 |
| 20260905111045 | 65 | 0 | 3.5 | 17.4 | 0.00 | 0.12 | 0.00 | 70 | 1021.6 |
| 20260905110545 | 67 | 238 | 2.6 | 17.4 | 0.00 | 0.12 | 0.00 | 67 | 1021.6 |
| 20260905110104 | 68 | 240 | 6.1 | 17.4 | 0.00 | 0.12 | 0.00 | 68 | 1021.6 |
| 20260905105542 | 66 | 231 | 0.9 | 16.5 | 0.00 | 0.12 | 0.00 | 70 | 1021.5 |
| 20260905105045 | 65 | 246 | 3.5 | 16.5 | 0.00 | 0.12 | 0.00 | 70 | 1021.6 |
| 20260905104617 | 66 | 207 | 3.5 | 16.5 | 0.00 | 0.12 | 0.00 | 69 | 1021.7 |
| 20260905104045 | 65 | 234 | 4.3 | 18.2 | 0.00 | 0.12 | 0.00 | 71 | 1021.5 |
| 20260905103542 | 66 | 221 | 4.3 | 19.1 | 0.00 | 0.12 | 0.00 | 70 | 1021.4 |
| 20260905103106 | 65 | 0 | 7.8 | 19.1 | 0.00 | 0.12 | 0.00 | 70 | 1021.5 |
| 20260905102542 | 65 | 230 | 0.9 | 14.8 | 0.00 | 0.12 | 0.00 | 71 | 1021.4 |
| 20260905102045 | 65 | 219 | 2.6 | 13.0 | 0.00 | 0.12 | 0.00 | 72 | 1021.5 |
| 20260905101610 | 65 | 232 | 1.7 | 14.8 | 0.00 | 0.12 | 0.00 | 73 | 1021.3 |
| 20260905101042 | 65 | 212 | 4.3 | 16.5 | 0.00 | 0.12 | 0.00 | 71 | 1021.4 |
| 20260905100545 | 66 | 0 | 7.8 | 17.4 | 0.00 | 0.12 | 0.00 | 71 | 1021.3 |
| 20260905100114 | 66 | 217 | 5.2 | 17.4 | 0.00 | 0.12 | 0.00 | 71 | 1021.3 |
| 20260905095545 | 66 | 0 | 4.3 | 17.4 | 0.00 | 0.12 | 0.00 | 73 | 1021.2 |
| 20260905095045 | 66 | 0 | 1.7 | 14.8 | 0.00 | 0.12 | 0.00 | 72 | 1021.2 |
| 20260905094555 | 66 | 219 | 3.5 | 16.5 | 0.00 | 0.12 | 0.00 | 73 | 1021.2 |
| 20260905094044 | 65 | 0 | 2.6 | 18.2 | 0.00 | 0.12 | 0.00 | 74 | 1021.1 |
| 20260905093545 | 65 | 226 | 5.2 | 18.2 | 0.00 | 0.12 | 0.00 | 73 | 1021.2 |
| 20260905093106 | 65 | 230 | 6.1 | 14.8 | 0.00 | 0.12 | 0.00 | 75 | 1021.1 |
| 20260905092550 | 64 | 244 | 6.1 | 13.9 | 0.00 | 0.12 | 0.00 | 76 | 1021.0 |
| 20260905092044 | 64 | 241 | 1.7 | 16.5 | 0.00 | 0.12 | 0.00 | 77 | 1021.1 |
| 20260905091603 | 64 | 225 | 2.6 | 16.5 | 0.00 | 0.12 | 0.00 | 75 | 1021.0 |
| 20260905091042 | 65 | 0 | 0.9 | 16.5 | 0.00 | 0.12 | 0.00 | 77 | 1021.0 |
| 20260905090545 | 64 | 205 | 2.6 | 12.2 | 0.00 | 0.12 | 0.00 | 77 | 1021.0 |
| 20260905090135 | 64 | 0 | 1.7 | 14.8 | 0.00 | 0.12 | 0.00 | 78 | 1020.9 |
| 20260905085546 | 64 | 0 | 1.7 | 14.8 | 0.00 | 0.12 | 0.00 | 80 | 1020.9 |
| 20260905085049 | 63 | 233 | 1.7 | 14.8 | 0.00 | 0.12 | 0.00 | 80 | 1021.0 |
| 20260905084602 | 63 | 0 | 2.6 | 13.0 | 0.00 | 0.12 | 0.00 | 79 | 1020.8 |
| 20260905084042 | 63 | 212 | 2.6 | 13.9 | 0.00 | 0.12 | 0.00 | 80 | 1020.8 |
| 20260905083544 | 63 | 225 | 2.6 | 13.9 | 0.00 | 0.12 | 0.00 | 81 | 1020.7 |
| 20260905083103 | 63 | 232 | 3.5 | 13.9 | 0.00 | 0.12 | 0.00 | 81 | 1020.6 |
| 20260905082544 | 63 | 0 | 2.6 | 11.3 | 0.00 | 0.12 | 0.00 | 80 | 1020.5 |
| 20260905082045 | 63 | 0 | 2.6 | 14.8 | 0.00 | 0.12 | 0.00 | 80 | 1020.5 |
| 20260905081603 | 64 | 0 | 0.0 | 14.8 | 0.00 | 0.12 | 0.00 | 80 | 1020.5 |
| 20260905081045 | 64 | 215 | 2.6 | 10.4 | 0.00 | 0.12 | 0.00 | 80 | 1020.5 |
| 20260905080545 | 63 | 0 | 2.6 | 10.4 | 0.00 | 0.12 | 0.00 | 82 | 1020.5 |
| 20260905075546 | 62 | 254 | 2.6 | 10.4 | 0.00 | 0.12 | 0.00 | 81 | 1020.4 |
| 20260905075043 | 63 | 0 | 1.7 | 10.4 | 0.00 | 0.12 | 0.00 | 80 | 1020.3 |
| 20260905074606 | 63 | 231 | 2.6 | 9.6 | 0.00 | 0.12 | 0.00 | 81 | 1020.3 |
| 20260905074046 | 63 | 242 | 0.9 | 8.7 | 0.00 | 0.12 | 0.00 | 82 | 1020.3 |
| 20260905073542 | 63 | 199 | 1.7 | 12.2 | 0.00 | 0.12 | 0.00 | 82 | 1020.1 |
| 20260905073102 | 62 | 234 | 0.0 | 12.2 | 0.00 | 0.12 | 0.00 | 84 | 1020.1 |
| 20260905072547 | 62 | 224 | 0.9 | 9.6 | 0.00 | 0.12 | 0.00 | 83 | 1020.0 |
| 20260905072042 | 62 | 236 | 0.0 | 8.7 | 0.00 | 0.12 | 0.00 | 85 | 1020.0 |
| 20260905071616 | 61 | 260 | 2.6 | 12.2 | 0.00 | 0.12 | 0.00 | 85 | 1020.0 |
| 20260905071042 | 61 | 221 | 0.9 | 12.2 | 0.00 | 0.12 | 0.00 | 85 | 1020.0 |
| 20260905070546 | 60 | 210 | 0.9 | 9.6 | 0.00 | 0.12 | 0.00 | 87 | 1019.9 |
| 20260905070108 | 60 | 247 | 1.7 | 9.6 | 0.00 | 0.12 | 0.00 | 87 | 1019.8 |
| 20260905065546 | 60 | 237 | 1.7 | 7.0 | 0.00 | 0.12 | 0.00 | 88 | 1019.8 |
| 20260905065042 | 60 | 0 | 0.0 | 7.0 | 0.00 | 0.12 | 0.00 | 88 | 1019.7 |
| 20260905064603 | 59 | 209 | 1.7 | 8.7 | 0.00 | 0.12 | 0.00 | 90 | 1019.7 |
| 20260905064046 | 59 | 0 | 0.9 | 12.2 | 0.00 | 0.12 | 0.00 | 89 | 1019.6 |
| 20260905063545 | 59 | 0 | 2.6 | 12.2 | 0.00 | 0.12 | 0.00 | 90 | 1019.6 |
| 20260905063058 | 58 | 227 | 0.0 | 10.4 | 0.00 | 0.12 | 0.00 | 91 | 1019.4 |
| 20260905062542 | 58 | 211 | 0.9 | 11.3 | 0.00 | 0.12 | 0.00 | 91 | 1019.4 |
| 20260905062045 | 58 | 221 | 4.3 | 11.3 | 0.00 | 0.12 | 0.00 | 92 | 1019.4 |
| 20260905061557 | 58 | 0 | 0.9 | 6.1 | 0.00 | 0.12 | 0.00 | 92 | 1019.3 |
| 20260905061042 | 58 | 225 | 0.0 | 7.0 | 0.00 | 0.12 | 0.00 | 92 | 1019.3 |
| 20260905060541 | 58 | 0 | 0.9 | 7.8 | 0.00 | 0.12 | 0.00 | 92 | 1019.3 |
| 20260905060105 | 57 | 227 | 0.0 | 7.8 | 0.00 | 0.12 | 0.00 | 93 | 1019.3 |
| 20260905055544 | 57 | 0 | 0.0 | 6.1 | 0.00 | 0.12 | 0.00 | 94 | 1019.3 |
| 20260905055044 | 57 | 0 | 0.0 | 6.1 | 0.00 | 0.12 | 0.00 | 94 | 1019.3 |
| 20260905054608 | 57 | 0 | 0.0 | 6.1 | 0.00 | 0.12 | 0.00 | 94 | 1019.2 |
| 20260905054045 | 57 | 0 | 0.0 | 6.1 | 0.00 | 0.12 | 0.00 | 94 | 1019.1 |
| 20260905053546 | 57 | 0 | 0.0 | 4.3 | 0.00 | 0.12 | 0.00 | 94 | 1019.1 |
| 20260905053101 | 57 | 0 | 0.0 | 4.3 | 0.00 | 0.12 | 0.00 | 94 | 1019.0 |
| 20260905052544 | 57 | 0 | 0.0 | 7.0 | 0.00 | 0.12 | 0.00 | 94 | 1019.0 |
| 20260905052045 | 57 | 0 | 0.0 | 7.0 | 0.00 | 0.12 | 0.00 | 94 | 1019.0 |
| 20260905051604 | 57 | 0 | 0.0 | 7.0 | 0.00 | 0.12 | 0.00 | 94 | 1018.9 |
| 20260905051042 | 57 | 0 | 0.0 | 0.0 | 0.00 | 0.12 | 0.00 | 95 | 1018.9 |
| 20260905050542 | 57 | 0 | 0.0 | 0.0 | 0.00 | 0.11 | 0.00 | 95 | 1018.8 |
| 20260905045542 | 57 | 0 | 0.0 | 0.0 | 0.00 | 0.11 | 0.00 | 95 | 1018.7 |
| 20260905045044 | 56 | 0 | 0.0 | 0.9 | 0.00 | 0.11 | 0.00 | 95 | 1018.7 |
| 20260905044604 | 56 | 0 | 0.0 | 0.9 | 0.00 | 0.11 | 0.00 | 95 | 1018.6 |
| 20260905044042 | 56 | 0 | 0.0 | 0.0 | 0.00 | 0.11 | 0.00 | 95 | 1018.6 |
| 20260905043545 | 56 | 0 | 0.0 | 5.2 | 0.00 | 0.11 | 0.00 | 95 | 1018.4 |
| 20260905043059 | 56 | 0 | 0.0 | 5.2 | 0.00 | 0.11 | 0.00 | 96 | 1018.3 |
| 20260905042545 | 56 | 0 | 0.0 | 4.3 | 0.00 | 0.11 | 0.00 | 96 | 1018.3 |
| 20260905042041 | 56 | 0 | 0.0 | 4.3 | 0.00 | 0.11 | 0.00 | 96 | 1018.2 |
| 20260905041607 | 56 | 0 | 0.0 | 3.5 | 0.00 | 0.11 | 0.00 | 96 | 1018.1 |
| 20260905041044 | 55 | 0 | 0.0 | 3.5 | 0.00 | 0.11 | 0.00 | 96 | 1018.0 |
| 20260905040541 | 55 | 0 | 0.0 | 3.5 | 0.00 | 0.11 | 0.00 | 96 | 1018.0 |
| 20260905040106 | 55 | 0 | 0.0 | 2.6 | 0.00 | 0.11 | 0.00 | 96 | 1018.0 |
| 20260905035547 | 55 | 0 | 0.0 | 2.6 | 0.00 | 0.11 | 0.00 | 96 | 1018.1 |
| 20260905035046 | 55 | 0 | 0.0 | 0.0 | 0.00 | 0.11 | 0.00 | 96 | 1018.0 |
| 20260905034616 | 55 | 0 | 0.0 | 4.3 | 0.00 | 0.11 | 0.00 | 96 | 1018.1 |
| 20260905034046 | 55 | 0 | 0.0 | 4.3 | 0.00 | 0.11 | 0.00 | 96 | 1018.1 |
| 20260905033545 | 54 | 0 | 0.0 | 4.3 | 0.00 | 0.11 | 0.00 | 96 | 1018.0 |
| 20260905033116 | 54 | 0 | 0.0 | 0.0 | 0.00 | 0.11 | 0.00 | 96 | 1018.0 |
| 20260905032547 | 54 | 0 | 0.0 | 0.0 | 0.00 | 0.11 | 0.00 | 96 | 1018.0 |
| 20260905032046 | 54 | 0 | 0.0 | 0.0 | 0.00 | 0.11 | 0.00 | 96 | 1018.0 |
| 20260905031614 | 54 | 0 | 0.0 | 0.0 | 0.00 | 0.11 | 0.00 | 96 | 1018.0 |
| 20260905031048 | 54 | 0 | 0.0 | 0.0 | 0.00 | 0.11 | 0.00 | 96 | 1018.1 |
| 20260905030546 | 54 | 0 | 0.0 | 0.0 | 0.00 | 0.11 | 0.00 | 96 | 1018.0 |
| 20260905030106 | 54 | 0 | 0.0 | 0.0 | 0.00 | 0.11 | 0.00 | 96 | 1018.0 |
| 20260905025545 | 54 | 0 | 0.0 | 0.0 | 0.00 | 0.11 | 0.00 | 96 | 1018.0 |
| 20260905025049 | 54 | 0 | 0.0 | 0.0 | 0.00 | 0.11 | 0.00 | 96 | 1018.0 |
| 20260905024605 | 54 | 0 | 0.0 | 0.0 | 0.00 | 0.11 | 0.00 | 96 | 1018.0 |
| 20260905024045 | 54 | 0 | 0.0 | 0.0 | 0.00 | 0.11 | 0.00 | 96 | 1018.0 |
| 20260905023548 | 54 | 0 | 0.0 | 0.0 | 0.00 | 0.11 | 0.00 | 96 | 1018.0 |
| 20260905023107 | 55 | 0 | 0.0 | 0.0 | 0.00 | 0.11 | 0.00 | 96 | 1017.9 |
| 20260905022550 | 55 | 0 | 0.0 | 0.0 | 0.00 | 0.11 | 0.00 | 96 | 1017.8 |
| 20260905022046 | 55 | 0 | 0.0 | 0.0 | 0.00 | 0.11 | 0.00 | 96 | 1017.9 |
| 20260905021604 | 55 | 0 | 0.0 | 0.0 | 0.00 | 0.11 | 0.00 | 96 | 1017.8 |
| 20260905021046 | 55 | 0 | 0.0 | 0.0 | 0.00 | 0.11 | 0.00 | 96 | 1017.8 |
| 20260905020546 | 54 | 0 | 0.0 | 0.0 | 0.00 | 0.11 | 0.00 | 96 | 1017.7 |
| 20260905020105 | 54 | 0 | 0.0 | 0.0 | 0.00 | 0.11 | 0.00 | 96 | 1017.8 |
| 20260905015546 | 54 | 0 | 0.0 | 0.0 | 0.00 | 0.11 | 0.00 | 96 | 1017.6 |
| 20260905015046 | 54 | 0 | 0.0 | 0.0 | 0.00 | 0.11 | 0.00 | 96 | 1017.6 |
| 20260905014614 | 54 | 0 | 0.0 | 0.0 | 0.00 | 0.11 | 0.00 | 96 | 1017.6 |
| 20260905014046 | 54 | 0 | 0.0 | 0.0 | 0.00 | 0.11 | 0.00 | 96 | 1017.5 |
| 20260905013547 | 54 | 0 | 0.0 | 0.0 | 0.00 | 0.11 | 0.00 | 96 | 1017.5 |
| 20260905013120 | 55 | 0 | 0.0 | 0.0 | 0.00 | 0.11 | 0.00 | 96 | 1017.6 |
| 20260905012546 | 55 | 0 | 0.0 | 0.0 | 0.00 | 0.11 | 0.00 | 96 | 1017.6 |
| 20260905012045 | 55 | 0 | 0.0 | 0.0 | 0.00 | 0.11 | 0.00 | 96 | 1017.6 |
| 20260905011601 | 55 | 0 | 0.0 | 0.0 | 0.00 | 0.11 | 0.00 | 96 | 1017.6 |
| 20260905011046 | 55 | 0 | 0.0 | 0.0 | 0.00 | 0.11 | 0.00 | 96 | 1017.6 |
| 20260905010547 | 55 | 0 | 0.0 | 0.0 | 0.00 | 0.11 | 0.00 | 96 | 1017.6 |
| 20260905010100 | 55 | 0 | 0.0 | 0.0 | 0.00 | 0.11 | 0.00 | 96 | 1017.6 |
| 20260905005546 | 55 | 0 | 0.0 | 0.0 | 0.00 | 0.11 | 0.00 | 96 | 1017.5 |
| 20260905005048 | 55 | 0 | 0.0 | 0.0 | 0.00 | 0.11 | 0.00 | 96 | 1017.6 |
| 20260905004711 | 55 | 0 | 0.0 | 0.0 | 0.00 | 0.11 | 0.00 | 96 | 1017.6 |
| 20260905004046 | 55 | 0 | 0.0 | 0.0 | 0.00 | 0.11 | 0.00 | 96 | 1017.6 |
| 20260905003546 | 56 | 0 | 0.0 | 0.0 | 0.00 | 0.11 | 0.00 | 96 | 1017.7 |
| 20260905003101 | 56 | 0 | 0.0 | 0.0 | 0.00 | 0.11 | 0.00 | 96 | 1017.7 |
| 20260905002545 | 56 | 0 | 0.0 | 0.0 | 0.00 | 0.11 | 0.00 | 96 | 1017.6 |
| 20260905002050 | 56 | 0 | 0.0 | 0.0 | 0.00 | 0.11 | 0.00 | 96 | 1017.6 |
| 20260905001609 | 56 | 0 | 0.0 | 0.0 | 0.00 | 0.11 | 0.00 | 96 | 1017.8 |
| 20260905001046 | 56 | 0 | 0.0 | 0.0 | 0.00 | 0.11 | 0.00 | 96 | 1017.6 |
| 20260905000546 | 56 | 0 | 0.0 | 0.0 | 0.00 | 0.11 | 0.00 | 96 | 1017.6 |
| 20260905000107 | 56 | 0 | 0.0 | 0.0 | 0.00 | 0.11 | 0.00 | 96 | 1017.6 |
| 20260904235546 | 56 | 0 | 0.0 | 0.0 | 0.00 | 0.11 | 0.00 | 96 | 1017.7 |
| 20260904235047 | 56 | 0 | 0.0 | 0.0 | 0.00 | 0.11 | 0.00 | 96 | 1017.5 |
| 20260904234604 | 56 | 0 | 0.0 | 0.0 | 0.00 | 0.11 | 0.00 | 96 | 1017.5 |
| 20260904234046 | 57 | 0 | 0.0 | 0.0 | 0.00 | 0.11 | 0.00 | 96 | 1017.6 |
| 20260904233546 | 57 | 0 | 0.0 | 0.0 | 0.00 | 0.11 | 0.00 | 95 | 1017.5 |
| 20260904233105 | 57 | 0 | 0.0 | 0.0 | 0.00 | 0.11 | 0.00 | 96 | 1017.4 |
| 20260904232546 | 57 | 0 | 0.0 | 0.0 | 0.00 | 0.11 | 0.00 | 95 | 1017.4 |
| 20260904232048 | 57 | 0 | 0.0 | 0.0 | 0.00 | 0.11 | 0.00 | 95 | 1017.4 |
| 20260904231606 | 57 | 0 | 0.0 | 0.0 | 0.00 | 0.11 | 0.00 | 95 | 1017.3 |
| 20260904231046 | 58 | 0 | 0.0 | 0.0 | 0.00 | 0.11 | 0.00 | 95 | 1017.3 |
| 20260904230546 | 58 | 0 | 0.0 | 0.0 | 0.00 | 0.11 | 0.00 | 95 | 1017.3 |
| 20260904230110 | 58 | 0 | 0.0 | 0.0 | 0.00 | 0.11 | 0.00 | 95 | 1017.3 |
| 20260904225547 | 58 | 0 | 0.0 | 0.0 | 0.00 | 0.11 | 0.00 | 95 | 1017.2 |
| 20260904225050 | 58 | 0 | 0.0 | 0.0 | 0.00 | 0.11 | 0.00 | 95 | 1017.2 |
| 20260904224605 | 59 | 0 | 0.0 | 0.0 | 0.00 | 0.11 | 0.00 | 95 | 1017.2 |
| 20260904224046 | 59 | 0 | 0.0 | 0.0 | 0.00 | 0.11 | 0.00 | 95 | 1017.2 |
| 20260904223545 | 59 | 0 | 0.0 | 0.0 | 0.00 | 0.11 | 0.00 | 95 | 1017.1 |
| 20260904223109 | 59 | 0 | 0.0 | 0.0 | 0.00 | 0.11 | 0.00 | 95 | 1017.1 |
| 20260904222546 | 59 | 0 | 0.0 | 0.0 | 0.00 | 0.11 | 0.00 | 95 | 1017.0 |
| 20260904222045 | 59 | 0 | 0.0 | 0.0 | 0.00 | 0.11 | 0.00 | 95 | 1017.0 |
| 20260904221606 | 59 | 0 | 0.0 | 0.9 | 0.00 | 0.11 | 0.00 | 95 | 1016.9 |
| 20260904221046 | 59 | 0 | 0.0 | 0.9 | 0.00 | 0.11 | 0.00 | 95 | 1016.8 |
| 20260904220547 | 59 | 0 | 0.0 | 0.9 | 0.00 | 0.11 | 0.00 | 95 | 1016.8 |
| 20260904220107 | 60 | 0 | 0.0 | 0.9 | 0.00 | 0.11 | 0.00 | 95 | 1016.8 |
| 20260904215546 | 60 | 0 | 0.0 | 0.9 | 0.00 | 0.11 | 0.11 | 95 | 1016.7 |
| 20260904215046 | 60 | 0 | 0.0 | 0.0 | 0.00 | 0.11 | 0.11 | 95 | 1016.6 |
| 20260904214613 | 60 | 0 | 0.0 | 0.0 | 0.00 | 0.11 | 0.11 | 95 | 1016.7 |
| 20260904214046 | 60 | 0 | 0.0 | 0.0 | 0.00 | 0.11 | 0.11 | 95 | 1016.5 |
| 20260904213546 | 60 | 0 | 0.0 | 0.0 | 0.00 | 0.11 | 0.11 | 95 | 1016.4 |
| 20260904213108 | 60 | 0 | 0.0 | 3.5 | 0.00 | 0.11 | 0.11 | 95 | 1016.5 |
| 20260904212546 | 60 | 0 | 0.0 | 3.5 | 0.00 | 0.11 | 0.11 | 95 | 1016.3 |
| 20260904212042 | 60 | 0 | 0.0 | 0.0 | 0.00 | 0.11 | 0.11 | 95 | 1016.4 |
| 20260904211602 | 60 | 0 | 0.0 | 5.2 | 0.00 | 0.11 | 0.11 | 95 | 1016.3 |
| 20260904211046 | 60 | 0 | 0.0 | 5.2 | 0.00 | 0.11 | 0.11 | 95 | 1016.2 |
| 20260904210550 | 60 | 0 | 0.0 | 5.2 | 0.00 | 0.11 | 0.11 | 95 | 1016.1 |
| 20260904210108 | 60 | 0 | 0.0 | 7.8 | 0.00 | 0.11 | 0.11 | 95 | 1016.1 |
| 20260904205549 | 60 | 0 | 0.9 | 7.8 | 0.00 | 0.11 | 0.11 | 95 | 1016.0 |
| 20260904205045 | 60 | 0 | 0.9 | 7.8 | 0.00 | 0.11 | 0.11 | 95 | 1016.1 |
| 20260904204609 | 60 | 0 | 0.0 | 7.8 | 0.00 | 0.11 | 0.11 | 95 | 1016.1 |
| 20260904204048 | 60 | 0 | 0.0 | 7.8 | 0.00 | 0.11 | 0.11 | 95 | 1016.0 |
| 20260904203546 | 60 | 0 | 0.0 | 7.8 | 0.00 | 0.11 | 0.11 | 95 | 1015.9 |
| 20260904203104 | 60 | 0 | 0.0 | 9.6 | 0.00 | 0.11 | 0.11 | 95 | 1015.8 |
| 20260904202545 | 61 | 0 | 0.9 | 9.6 | 0.00 | 0.11 | 0.11 | 95 | 1015.8 |
| 20260904202046 | 61 | 241 | 0.0 | 6.1 | 0.00 | 0.11 | 0.11 | 95 | 1015.9 |
| 20260904201601 | 61 | 0 | 0.0 | 7.0 | 0.00 | 0.11 | 0.11 | 95 | 1016.0 |
| 20260904201046 | 61 | 0 | 0.0 | 7.8 | 0.00 | 0.11 | 0.11 | 95 | 1016.0 |
| 20260904200547 | 60 | 0 | 0.0 | 7.8 | 0.00 | 0.11 | 0.11 | 95 | 1015.8 |
| 20260904200120 | 61 | 0 | 0.0 | 8.7 | 0.00 | 0.11 | 0.11 | 95 | 1015.9 |
| 20260904195549 | 61 | 0 | 0.0 | 8.7 | 0.00 | 0.11 | 0.11 | 95 | 1015.8 |
| 20260904195045 | 61 | 0 | 1.7 | 7.8 | 0.00 | 0.11 | 0.11 | 95 | 1015.9 |
| 20260904194609 | 61 | 0 | 0.0 | 6.1 | 0.00 | 0.11 | 0.11 | 95 | 1015.7 |
| 20260904194046 | 61 | 0 | 0.0 | 6.1 | 0.00 | 0.11 | 0.11 | 95 | 1015.6 |
| 20260904193545 | 61 | 0 | 0.0 | 6.1 | 0.00 | 0.11 | 0.11 | 96 | 1015.6 |
| 20260904193106 | 61 | 0 | 0.0 | 4.3 | 0.00 | 0.11 | 0.11 | 95 | 1015.7 |
| 20260904192546 | 61 | 0 | 0.0 | 3.5 | 0.00 | 0.11 | 0.11 | 96 | 1015.5 |
| 20260904192048 | 61 | 0 | 0.0 | 6.1 | 0.00 | 0.11 | 0.11 | 95 | 1015.4 |
| 20260904191605 | 61 | 0 | 0.0 | 6.1 | 0.00 | 0.11 | 0.11 | 95 | 1015.1 |
| 20260904191046 | 61 | 0 | 0.9 | 8.7 | 0.00 | 0.11 | 0.11 | 95 | 1015.1 |
| 20260904190546 | 61 | 0 | 0.0 | 8.7 | 0.00 | 0.11 | 0.11 | 95 | 1015.1 |
| 20260904190106 | 61 | 0 | 0.9 | 7.0 | 0.00 | 0.11 | 0.11 | 95 | 1015.1 |
| 20260904185546 | 61 | 211 | 0.0 | 7.0 | 0.00 | 0.11 | 0.11 | 95 | 1015.0 |
| 20260904185046 | 61 | 0 | 0.0 | 8.7 | 0.00 | 0.11 | 0.11 | 95 | 1015.0 |
| 20260904184614 | 61 | 234 | 0.9 | 8.7 | 0.00 | 0.11 | 0.11 | 95 | 1014.7 |
| 20260904184045 | 61 | 223 | 0.9 | 7.8 | 0.00 | 0.11 | 0.11 | 96 | 1014.6 |
| 20260904183549 | 61 | 239 | 0.9 | 7.8 | 0.00 | 0.11 | 0.11 | 95 | 1014.5 |
| 20260904183056 | 61 | 0 | 0.0 | 7.8 | 0.00 | 0.11 | 0.11 | 95 | 1014.4 |
| 20260904182545 | 61 | 239 | 0.0 | 7.8 | 0.00 | 0.11 | 0.11 | 95 | 1014.2 |
| 20260904182046 | 61 | 0 | 1.7 | 7.0 | 0.00 | 0.11 | 0.11 | 95 | 1014.2 |
| 20260904181613 | 62 | 0 | 0.0 | 7.8 | 0.00 | 0.11 | 0.11 | 95 | 1014.0 |
| 20260904181045 | 61 | 0 | 0.0 | 7.8 | 0.00 | 0.11 | 0.11 | 95 | 1014.0 |
| 20260904180547 | 62 | 236 | 0.0 | 7.0 | 0.00 | 0.11 | 0.11 | 95 | 1013.9 |
| 20260904180100 | 62 | 0 | 0.0 | 9.6 | 0.00 | 0.11 | 0.11 | 95 | 1013.7 |
| 20260904175545 | 62 | 0 | 1.7 | 9.6 | 0.00 | 0.11 | 0.11 | 95 | 1013.8 |
| 20260904175045 | 62 | 0 | 1.7 | 9.6 | 0.00 | 0.11 | 0.11 | 95 | 1013.8 |
| 20260904174604 | 62 | 238 | 0.0 | 8.7 | 0.00 | 0.11 | 0.11 | 95 | 1013.8 |
| 20260904174046 | 62 | 0 | 0.9 | 8.7 | 0.00 | 0.11 | 0.11 | 95 | 1013.7 |
| 20260904173545 | 62 | 0 | 1.7 | 7.8 | 0.00 | 0.11 | 0.11 | 95 | 1013.6 |
| 20260904173101 | 62 | 0 | 0.9 | 8.7 | 0.00 | 0.11 | 0.11 | 95 | 1013.5 |
| 20260904172547 | 62 | 0 | 0.0 | 8.7 | 0.01 | 0.11 | 0.11 | 95 | 1013.5 |
| 20260904172048 | 62 | 243 | 0.9 | 7.8 | 0.04 | 0.11 | 0.11 | 95 | 1013.6 |
| 20260904171619 | 62 | 239 | 0.0 | 8.7 | 0.05 | 0.11 | 0.11 | 95 | 1013.7 |
| 20260904171046 | 62 | 0 | 0.0 | 8.7 | 0.05 | 0.11 | 0.11 | 95 | 1013.6 |
| 20260904170545 | 61 | 0 | 0.0 | 8.7 | 0.05 | 0.11 | 0.11 | 95 | 1013.6 |
| 20260904170100 | 61 | 250 | 0.9 | 8.7 | 0.05 | 0.11 | 0.11 | 95 | 1013.5 |
| 20260904165547 | 61 | 214 | 2.6 | 8.7 | 0.05 | 0.11 | 0.11 | 95 | 1013.6 |
| 20260904165046 | 62 | 0 | 0.0 | 13.0 | 0.05 | 0.11 | 0.11 | 95 | 1013.5 |
| 20260904164618 | 62 | 0 | 1.7 | 13.0 | 0.05 | 0.11 | 0.11 | 95 | 1013.5 |
| 20260904164046 | 62 | 0 | 0.0 | 9.6 | 0.05 | 0.11 | 0.11 | 95 | 1013.4 |
| 20260904163546 | 62 | 237 | 1.7 | 9.6 | 0.06 | 0.11 | 0.11 | 95 | 1013.2 |
| 20260904163101 | 62 | 246 | 0.0 | 11.3 | 0.05 | 0.11 | 0.11 | 95 | 1013.4 |
| 20260904162547 | 62 | 266 | 1.7 | 11.3 | 0.05 | 0.10 | 0.10 | 94 | 1013.6 |
| 20260904162045 | 62 | 217 | 0.0 | 12.2 | 0.02 | 0.07 | 0.07 | 94 | 1013.4 |
| 20260904161610 | 62 | 252 | 0.9 | 12.2 | 0.01 | 0.06 | 0.06 | 94 | 1013.4 |
| 20260904161045 | 62 | 277 | 0.9 | 9.6 | 0.02 | 0.06 | 0.06 | 94 | 1013.4 |
| 20260904160546 | 62 | 0 | 0.0 | 11.3 | 0.03 | 0.06 | 0.06 | 94 | 1013.3 |
| 20260904160108 | 62 | 217 | 0.9 | 15.6 | 0.06 | 0.06 | 0.06 | 94 | 1013.3 |
| 20260904155544 | 63 | 272 | 2.6 | 15.6 | 0.06 | 0.06 | 0.06 | 94 | 1013.3 |
| 20260904155045 | 63 | 0 | 1.7 | 12.2 | 0.06 | 0.06 | 0.06 | 94 | 1013.3 |
| 20260904154604 | 63 | 217 | 1.7 | 12.2 | 0.06 | 0.06 | 0.06 | 94 | 1013.2 |
| 20260904154046 | 63 | 309 | 0.9 | 13.9 | 0.06 | 0.06 | 0.06 | 94 | 1013.4 |
| 20260904153545 | 63 | 252 | 3.5 | 16.5 | 0.05 | 0.05 | 0.05 | 93 | 1013.4 |
| 20260904153112 | 63 | 238 | 1.7 | 16.5 | 0.05 | 0.05 | 0.05 | 92 | 1013.4 |
| 20260904152545 | 63 | 0 | 4.3 | 16.5 | 0.04 | 0.04 | 0.04 | 92 | 1013.2 |
| 20260904152043 | 64 | 253 | 1.7 | 21.7 | 0.04 | 0.04 | 0.04 | 92 | 1013.0 |
| 20260904151559 | 64 | 0 | 2.6 | 21.7 | 0.04 | 0.04 | 0.04 | 91 | 1012.7 |
| 20260904151045 | 65 | 266 | 1.7 | 19.1 | 0.03 | 0.03 | 0.03 | 89 | 1012.7 |
| 20260904150546 | 66 | 0 | 2.6 | 19.1 | 0.02 | 0.02 | 0.02 | 87 | 1012.6 |
| 20260904150100 | 69 | 340 | 3.5 | 15.6 | 0.00 | 0.00 | 0.00 | 85 | 1012.4 |
| 20260904145546 | 70 | 219 | 1.7 | 17.4 | 0.00 | 0.00 | 0.00 | 84 | 1012.1 |
| 20260904145046 | 71 | 227 | 1.7 | 24.3 | 0.00 | 0.00 | 0.00 | 82 | 1011.9 |
| 20260904144606 | 72 | 258 | 7.0 | 24.3 | 0.00 | 0.00 | 0.00 | 78 | 1011.7 |
| 20260904144045 | 73 | 255 | 4.3 | 18.2 | 0.00 | 0.00 | 0.00 | 76 | 1011.7 |
| 20260904143545 | 73 | 202 | 3.5 | 20.0 | 0.00 | 0.00 | 0.00 | 76 | 1011.3 |
| 20260904143107 | 73 | 248 | 9.6 | 20.0 | 0.00 | 0.00 | 0.00 | 75 | 1011.4 |
| 20260904142545 | 73 | 0 | 1.7 | 20.0 | 0.00 | 0.00 | 0.00 | 75 | 1011.3 |
| 20260904142046 | 73 | 0 | 4.3 | 20.9 | 0.00 | 0.00 | 0.00 | 75 | 1011.4 |
| 20260904141558 | 73 | 205 | 9.6 | 20.9 | 0.00 | 0.00 | 0.00 | 75 | 1011.4 |
| 20260904141045 | 74 | 214 | 6.1 | 20.0 | 0.00 | 0.00 | 0.00 | 75 | 1011.6 |
| 20260904140543 | 73 | 223 | 6.1 | 22.6 | 0.00 | 0.00 | 0.00 | 76 | 1011.4 |
| 20260904140105 | 73 | 0 | 7.0 | 24.3 | 0.00 | 0.00 | 0.00 | 76 | 1011.4 |
| 20260904135546 | 73 | 221 | 8.7 | 30.4 | 0.00 | 0.00 | 0.00 | 75 | 1011.7 |
| 20260904135045 | 74 | 248 | 10.4 | 30.4 | 0.00 | 0.00 | 0.00 | 74 | 1011.6 |
| 20260904134606 | 75 | 248 | 9.6 | 26.1 | 0.00 | 0.00 | 0.00 | 73 | 1011.4 |
| 20260904134050 | 75 | 247 | 7.8 | 22.6 | 0.00 | 0.00 | 0.00 | 72 | 1011.4 |
| 20260904133544 | 75 | 238 | 7.0 | 22.6 | 0.00 | 0.00 | 0.00 | 73 | 1011.3 |
| 20260904133116 | 75 | 245 | 9.6 | 21.7 | 0.00 | 0.00 | 0.00 | 72 | 1011.4 |
| 20260904132546 | 75 | 251 | 4.3 | 18.2 | 0.00 | 0.00 | 0.00 | 72 | 1011.5 |
| 20260904132045 | 74 | 219 | 4.3 | 19.1 | 0.00 | 0.00 | 0.00 | 74 | 1011.4 |
| 20260904131607 | 73 | 212 | 1.7 | 19.1 | 0.00 | 0.00 | 0.00 | 73 | 1011.4 |
| 20260904131043 | 73 | 0 | 4.3 | 26.9 | 0.00 | 0.00 | 0.00 | 73 | 1011.3 |
| 20260904130544 | 74 | 245 | 9.6 | 26.9 | 0.00 | 0.00 | 0.00 | 72 | 1011.4 |
| 20260904130108 | 75 | 243 | 7.0 | 20.0 | 0.00 | 0.00 | 0.00 | 70 | 1011.4 |
| 20260904125545 | 74 | 250 | 2.6 | 19.1 | 0.00 | 0.00 | 0.00 | 71 | 1011.3 |
| 20260904125045 | 74 | 225 | 7.0 | 28.7 | 0.00 | 0.00 | 0.00 | 71 | 1011.3 |
| 20260904124605 | 75 | 287 | 11.3 | 28.7 | 0.00 | 0.00 | 0.00 | 69 | 1011.3 |
| 20260904124045 | 75 | 220 | 7.8 | 20.0 | 0.00 | 0.00 | 0.00 | 68 | 1011.2 |